Orbital Elements at Epoch 2459000.5 (2020-May-31.0) TDB
Reference: JPL 15 (heliocentric ecliptic J2000)
Element | Value | Uncertainty (1-sigma) | Units |
e | .1872271985931031 | 5.1381e-08 | |
a | 2.63024949174594 | 1.2243e-08 | au |
q | 2.137795247805414 | 1.3789e-07 | au |
i | 2.76112893852477 | 5.3259e-06 | deg |
node | 24.2113709021088 | 9.2451e-05 | deg |
peri | 334.4332196345061 | 9.3328e-05 | deg |
M | 32.54303280977546 | 1.1771e-05 | deg |
tp | 2458859.652426903870 (2020-Jan-11.15242690) | 5.0656e-05 | TDB |
period | 1558.094680695397 4.27 | 1.0878e-05 2.978e-08 | d yr |
n | .2310514274006298 | 1.6132e-09 | deg/d |
Q | 3.122703735686465 | 1.4535e-08 | au |
|
| | Orbit Determination Parameters
Additional Information
|